Change the Weather History Date:

Saturday, July 6, 2013

  Actual Average Record
Temperature  
Mean Temperature 83 °F 82 °F  
Max Temperature 86 °F 90 °F 99 °F (1980)
Min Temperature 79 °F 75 °F 67 °F (1975)
Degree Days  
Heating Degree Days 0 0  
Month to date heating degree days 0 0  
Since 1 June heating degree days 0 0  
Since 1 July heating degree days 0 0  
Cooling Degree Days 18 18  
Month to date cooling degree days 97 103  
Year to date cooling degree days 993 1004  
Since 1 June cooling degree days 592 562  
Growing Degree Days 32 (Base 50)    
Moisture  
Dew Point 74 °F    
Average Humidity 78    
Maximum Humidity 85    
Minimum Humidity 70    
Precipitation  
Precipitation 0.03 in 0.13 in 1.26 in (2006)
Month to date precipitation 0.51 0.77  
Year to date precipitation 21.24 20.53  
Snow  
Snow 0.00 in - 0.00 in ()
Month to date snowfall 0.0  
Since 1 June snowfall 0.0  
Since 1 July snowfall 0.0  
Snow Depth 0.00 in    
Sea Level Pressure  
Sea Level Pressure 30.15 in    
Wind  
Wind Speed 11 mph (SE)    
Max Wind Speed 21 mph    
Max Gust Speed 30 mph    
Visibility 9 miles    
Events Rain    
T = Trace of Precipitation, MM = Missing Value Source: NWS Daily Summary

Daily Weather History Graph

Daily Weather History Graph

Search for Another Location

Airport or City:

Trip Planner

Search our weather history database for the weather conditions in past years. The results will help you decide how hot, cold, wet, or windy it might be!

Date:

Astronomy

Jul. 06, 2013 Rise Set
Actual Time 6:27 AM EDT 8:33 PM EDT
Civil Twilight 5:59 AM EDT 9:00 PM EDT
Nautical Twilight 5:26 AM EDT 9:34 PM EDT
Astronomical Twilight 4:50 AM EDT 10:10 PM EDT
Moon 5:09 AM EDT (7/6) 7:17 PM EDT (7/6)
Length of Visible Light 15h 00m
Length of Day
14h 05m
Waning Crescent, 2% of the Moon is Illuminated
Jul 6
Waning Crescent
Jul 8
New
Jul 15
First Quarter
Jul 22
Full
Jul 29
Last Quarter

Hourly Weather History & Observations

Time (EDT) Temp. Heat Index Dew Point Humidity Pressure Visibility Wind Dir Wind Speed Gust Speed Precip Events Conditions
12:53 AM 80.1 °F 84.5 °F 73.9 °F 81% 30.17 in 10.0 mi SE 12.7 mph - N/A   Clear
1:53 AM 80.1 °F 84.5 °F 73.9 °F 81% 30.16 in 10.0 mi SE 9.2 mph - N/A   Mostly Cloudy
2:06 AM 80.6 °F 85.4 °F 73.4 °F 79% 30.16 in 10.0 mi SE 8.1 mph - N/A   Scattered Clouds
2:53 AM 79.0 °F - 73.9 °F 84% 30.15 in 10.0 mi SE 9.2 mph - N/A   Clear
3:24 AM 80.6 °F 85.4 °F 73.4 °F 79% 30.15 in 10.0 mi SE 9.2 mph - N/A   Mostly Cloudy
3:40 AM 78.8 °F - 73.4 °F 83% 30.14 in 10.0 mi SE 8.1 mph - N/A   Mostly Cloudy
3:53 AM 79.0 °F - 73.9 °F 84% 30.14 in 10.0 mi SE 6.9 mph - N/A   Partly Cloudy
4:53 AM 79.0 °F - 73.9 °F 84% 30.14 in 10.0 mi SE 8.1 mph - N/A   Clear
5:53 AM 79.0 °F - 73.0 °F 82% 30.14 in 10.0 mi SE 5.8 mph - N/A   Partly Cloudy
6:53 AM 79.0 °F - 73.9 °F 84% 30.15 in 10.0 mi SE 5.8 mph - N/A   Partly Cloudy
7:53 AM 81.0 °F 86.2 °F 73.9 °F 79% 30.16 in 10.0 mi SE 8.1 mph - N/A   Clear
8:53 AM 82.0 °F 87.9 °F 73.9 °F 76% 30.17 in 10.0 mi SE 10.4 mph - N/A   Clear
9:53 AM 84.0 °F 91.2 °F 73.9 °F 72% 30.17 in 10.0 mi SE 11.5 mph - N/A   Clear
10:53 AM 82.9 °F 90.2 °F 75.0 °F 77% 30.18 in 10.0 mi ESE 10.4 mph - N/A   Clear
11:53 AM 84.0 °F 91.9 °F 75.0 °F 74% 30.18 in 10.0 mi ESE 11.5 mph - N/A   Clear
12:53 PM 86.0 °F 95.1 °F 75.0 °F 70% 30.18 in 10.0 mi ESE 12.7 mph 18.4 mph N/A   Clear
1:53 PM 84.0 °F 91.9 °F 75.0 °F 74% 30.17 in 10.0 mi ESE 16.1 mph - N/A   Mostly Cloudy
2:53 PM 86.0 °F 95.1 °F 75.0 °F 70% 30.15 in 10.0 mi ESE 11.5 mph 19.6 mph N/A   Partly Cloudy
3:53 PM 80.1 °F 85.1 °F 75.0 °F 85% 30.14 in 7.0 mi ESE 13.8 mph 25.3 mph N/A   Mostly Cloudy
4:03 PM 82.4 °F 89.5 °F 75.2 °F 79% 30.14 in 10.0 mi ESE 11.5 mph - N/A   Overcast
4:20 PM 78.8 °F - 75.2 °F 89% 30.15 in 1.8 mi SE 11.5 mph 24.2 mph 0.03 in Rain Light Rain
4:25 PM 78.8 °F - 75.2 °F 89% 30.14 in 3.0 mi SE 12.7 mph 19.6 mph 0.03 in Rain Light Rain
4:53 PM 80.1 °F 85.4 °F 75.9 °F 87% 30.14 in 10.0 mi SE 13.8 mph - 0.03 in   Overcast
5:26 PM 82.4 °F 89.5 °F 75.2 °F 79% 30.13 in 10.0 mi SE 15.0 mph 20.7 mph N/A   Mostly Cloudy
5:53 PM 82.0 °F 87.9 °F 73.9 °F 76% 30.12 in 10.0 mi SE 12.7 mph 21.9 mph N/A   Scattered Clouds
6:53 PM 81.0 °F 85.8 °F 73.0 °F 77% 30.12 in 10.0 mi SE 8.1 mph - N/A   Overcast
7:53 PM 80.1 °F 84.2 °F 73.0 °F 79% 30.12 in 10.0 mi SE 13.8 mph 19.6 mph N/A   Clear
8:53 PM 80.1 °F 84.5 °F 73.9 °F 81% 30.12 in 10.0 mi SE 10.4 mph - N/A   Clear
9:53 PM 80.1 °F 85.1 °F 75.0 °F 85% 30.15 in 10.0 mi SE 12.7 mph - N/A   Clear
10:53 PM 80.1 °F 85.1 °F 75.0 °F 85% 30.16 in 10.0 mi SE 12.7 mph - N/A   Partly Cloudy
11:53 PM 80.1 °F 85.1 °F 75.0 °F 85% 30.15 in 10.0 mi SE 12.7 mph - N/A   Clear